| time (UTC) | temp F | wind direction | speed MPH | gust MPH | rain 1hr in | rain 24hr in | rain mn in | humidity % | barometer mb |
| 20260510151557 | 61 | 12 | 3.0 | 10.0 | 0.00 | 0.12 | 0.12 | 60 | 1016.9 |
| 20260510151057 | 61 | 26 | 3.0 | 10.0 | 0.00 | 0.12 | 0.12 | 60 | 1016.7 |
| 20260510150557 | 61 | 33 | 4.0 | 11.0 | 0.00 | 0.12 | 0.12 | 59 | 1016.6 |
| 20260510150100 | 60 | 32 | 5.0 | 11.0 | 0.00 | 0.12 | 0.12 | 59 | 1016.6 |
| 20260510145600 | 60 | 24 | 3.0 | 10.0 | 0.00 | 0.12 | 0.12 | 62 | 1016.5 |
| 20260510145104 | 60 | 12 | 5.0 | 10.0 | 0.00 | 0.12 | 0.12 | 62 | 1016.5 |
| 20260510144612 | 60 | 55 | 2.0 | 9.0 | 0.00 | 0.12 | 0.12 | 61 | 1016.3 |
| 20260510144057 | 60 | 15 | 3.0 | 9.0 | 0.00 | 0.12 | 0.12 | 62 | 1016.4 |
| 20260510143602 | 59 | 352 | 3.0 | 9.0 | 0.00 | 0.12 | 0.12 | 61 | 1016.3 |
| 20260510143058 | 59 | 53 | 3.0 | 10.0 | 0.00 | 0.12 | 0.12 | 64 | 1016.2 |
| 20260510142559 | 59 | 38 | 3.0 | 10.0 | 0.00 | 0.12 | 0.12 | 62 | 1016.1 |
| 20260510142059 | 59 | 70 | 4.0 | 11.0 | 0.00 | 0.12 | 0.12 | 62 | 1016.0 |
| 20260510141559 | 59 | 15 | 4.0 | 11.0 | 0.00 | 0.12 | 0.12 | 64 | 1015.9 |
| 20260510141103 | 58 | 69 | 5.0 | 11.0 | 0.00 | 0.12 | 0.12 | 62 | 1015.8 |
| 20260510140600 | 58 | 0 | 2.0 | 9.0 | 0.00 | 0.12 | 0.12 | 64 | 1015.7 |
| 20260510140057 | 58 | 332 | 3.0 | 9.0 | 0.00 | 0.12 | 0.12 | 65 | 1015.7 |
| 20260510135559 | 58 | 331 | 2.0 | 8.0 | 0.00 | 0.12 | 0.12 | 67 | 1015.7 |
| 20260510135059 | 57 | 300 | 2.0 | 8.0 | 0.00 | 0.12 | 0.12 | 67 | 1015.6 |
| 20260510134600 | 57 | 52 | 2.0 | 8.0 | 0.00 | 0.12 | 0.12 | 67 | 1015.5 |
| 20260510134059 | 57 | 0 | 2.0 | 8.0 | 0.00 | 0.12 | 0.12 | 68 | 1015.4 |
| 20260510133604 | 56 | 63 | 3.0 | 8.0 | 0.00 | 0.12 | 0.12 | 67 | 1015.4 |
| 20260510133057 | 57 | 10 | 1.0 | 8.0 | 0.00 | 0.12 | 0.12 | 68 | 1015.6 |
| 20260510132558 | 56 | 0 | 1.0 | 7.0 | 0.00 | 0.12 | 0.12 | 68 | 1015.4 |
| 20260510132100 | 56 | 9 | 1.0 | 7.0 | 0.00 | 0.12 | 0.12 | 72 | 1015.2 |
| 20260510131600 | 55 | 0 | 1.0 | 6.0 | 0.00 | 0.12 | 0.12 | 72 | 1015.3 |
| 20260510131059 | 55 | 24 | 1.0 | 7.0 | 0.00 | 0.12 | 0.12 | 72 | 1015.4 |
| 20260510130600 | 55 | 0 | 1.0 | 8.0 | 0.00 | 0.12 | 0.12 | 72 | 1015.2 |
| 20260510130100 | 54 | 13 | 1.0 | 8.0 | 0.00 | 0.12 | 0.12 | 72 | 1015.2 |
| 20260510125559 | 54 | 24 | 1.0 | 5.0 | 0.00 | 0.13 | 0.12 | 73 | 1015.0 |
| 20260510125100 | 54 | 9 | 1.0 | 5.0 | 0.00 | 0.13 | 0.12 | 74 | 1014.8 |
| 20260510124602 | 54 | 0 | 1.0 | 5.0 | 0.00 | 0.13 | 0.12 | 75 | 1015.0 |
| 20260510124059 | 54 | 0 | 0.0 | 5.0 | 0.00 | 0.13 | 0.12 | 78 | 1015.1 |
| 20260510123559 | 54 | 15 | 1.0 | 3.0 | 0.00 | 0.13 | 0.12 | 78 | 1015.2 |
| 20260510123057 | 54 | 0 | 0.0 | 4.0 | 0.00 | 0.13 | 0.12 | 79 | 1015.1 |
| 20260510122559 | 53 | 0 | 0.0 | 5.0 | 0.00 | 0.13 | 0.12 | 79 | 1014.9 |
| 20260510122059 | 53 | 17 | 0.0 | 5.0 | 0.00 | 0.13 | 0.12 | 79 | 1014.8 |
| 20260510121559 | 53 | 0 | 0.0 | 8.0 | 0.00 | 0.13 | 0.12 | 79 | 1014.6 |
| 20260510121105 | 53 | 60 | 1.0 | 9.0 | 0.00 | 0.13 | 0.12 | 79 | 1014.4 |
| 20260510120600 | 53 | 5 | 2.0 | 9.0 | 0.00 | 0.13 | 0.12 | 80 | 1014.5 |
| 20260510120058 | 53 | 24 | 1.0 | 6.0 | 0.00 | 0.13 | 0.12 | 80 | 1014.2 |
| 20260510115559 | 53 | 0 | 1.0 | 7.0 | 0.00 | 0.14 | 0.12 | 81 | 1014.1 |
| 20260510115100 | 53 | 360 | 2.0 | 7.0 | 0.00 | 0.14 | 0.12 | 82 | 1014.1 |
| 20260510114621 | 53 | 5 | 1.0 | 5.0 | 0.00 | 0.14 | 0.12 | 81 | 1014.0 |
| 20260510114100 | 53 | 9 | 2.0 | 5.0 | 0.00 | 0.14 | 0.12 | 82 | 1014.0 |
| 20260510113559 | 53 | 22 | 0.0 | 4.0 | 0.00 | 0.14 | 0.12 | 81 | 1014.0 |
| 20260510113101 | 53 | 0 | 0.0 | 4.0 | 0.00 | 0.14 | 0.12 | 80 | 1013.8 |
| 20260510112602 | 53 | 0 | 0.0 | 3.0 | 0.00 | 0.14 | 0.12 | 80 | 1013.8 |
| 20260510112058 | 53 | 0 | 0.0 | 2.0 | 0.00 | 0.14 | 0.12 | 79 | 1013.6 |
| 20260510111556 | 53 | 0 | 0.0 | 3.0 | 0.00 | 0.14 | 0.12 | 79 | 1013.6 |
| 20260510111100 | 53 | 0 | 0.0 | 3.0 | 0.00 | 0.14 | 0.12 | 79 | 1013.7 |
| 20260510110600 | 53 | 355 | 0.0 | 3.0 | 0.00 | 0.14 | 0.12 | 79 | 1013.6 |
| 20260510110104 | 53 | 0 | 0.0 | 3.0 | 0.00 | 0.14 | 0.12 | 78 | 1013.5 |
| 20260510105600 | 53 | 0 | 0.0 | 3.0 | 0.00 | 0.15 | 0.12 | 78 | 1013.2 |
| 20260510105056 | 53 | 0 | 0.0 | 4.0 | 0.00 | 0.15 | 0.12 | 77 | 1013.3 |
| 20260510104600 | 54 | 337 | 1.0 | 6.0 | 0.00 | 0.15 | 0.12 | 77 | 1013.0 |
| 20260510104059 | 54 | 346 | 2.0 | 8.0 | 0.00 | 0.15 | 0.12 | 76 | 1013.0 |
| 20260510103557 | 54 | 352 | 3.0 | 8.0 | 0.00 | 0.15 | 0.12 | 77 | 1013.0 |
| 20260510103059 | 54 | 9 | 2.0 | 5.0 | 0.00 | 0.15 | 0.12 | 77 | 1013.0 |
| 20260510102601 | 54 | 352 | 2.0 | 5.0 | 0.00 | 0.15 | 0.12 | 77 | 1012.9 |
| 20260510102100 | 54 | 346 | 2.0 | 5.0 | 0.00 | 0.15 | 0.12 | 76 | 1012.9 |
| 20260510101605 | 54 | 0 | 0.0 | 5.0 | 0.00 | 0.15 | 0.12 | 76 | 1012.6 |
| 20260510101057 | 54 | 0 | 0.0 | 5.0 | 0.00 | 0.15 | 0.12 | 76 | 1012.4 |
| 20260510100602 | 54 | 350 | 1.0 | 6.0 | 0.00 | 0.15 | 0.12 | 76 | 1012.6 |
| 20260510100110 | 54 | 0 | 1.0 | 6.0 | 0.00 | 0.15 | 0.12 | 76 | 1012.4 |
| 20260510095559 | 54 | 345 | 1.0 | 4.0 | 0.00 | 0.20 | 0.12 | 77 | 1012.4 |
| 20260510095058 | 54 | 0 | 0.0 | 5.0 | 0.00 | 0.20 | 0.12 | 76 | 1012.2 |
| 20260510094600 | 54 | 16 | 0.0 | 5.0 | 0.00 | 0.20 | 0.12 | 76 | 1012.1 |
| 20260510094058 | 55 | 5 | 1.0 | 8.0 | 0.00 | 0.20 | 0.12 | 75 | 1012.3 |
| 20260510093600 | 55 | 0 | 2.0 | 9.0 | 0.00 | 0.20 | 0.12 | 75 | 1012.1 |
| 20260510093059 | 54 | 355 | 4.0 | 9.0 | 0.00 | 0.20 | 0.12 | 76 | 1012.2 |
| 20260510092558 | 54 | 352 | 4.0 | 8.0 | 0.00 | 0.20 | 0.12 | 77 | 1012.1 |
| 20260510092058 | 54 | 351 | 2.0 | 6.0 | 0.00 | 0.20 | 0.12 | 79 | 1012.0 |
| 20260510091558 | 54 | 355 | 3.0 | 6.0 | 0.00 | 0.20 | 0.12 | 81 | 1012.1 |
| 20260510091057 | 54 | 5 | 2.0 | 6.0 | 0.00 | 0.20 | 0.12 | 81 | 1011.9 |
| 20260510090557 | 54 | 350 | 3.0 | 6.0 | 0.00 | 0.20 | 0.12 | 82 | 1011.7 |
| 20260510090100 | 54 | 342 | 3.0 | 6.0 | 0.00 | 0.20 | 0.12 | 83 | 1011.7 |
| 20260510085557 | 54 | 337 | 2.0 | 4.0 | 0.00 | 0.25 | 0.12 | 83 | 1011.7 |
| 20260510085059 | 54 | 0 | 0.0 | 2.0 | 0.00 | 0.25 | 0.12 | 84 | 1011.6 |
| 20260510084610 | 54 | 0 | 0.0 | 2.0 | 0.00 | 0.25 | 0.12 | 84 | 1011.5 |
| 20260510084057 | 55 | 331 | 0.0 | 3.0 | 0.00 | 0.25 | 0.12 | 84 | 1011.4 |
| 20260510083559 | 55 | 0 | 1.0 | 6.0 | 0.00 | 0.25 | 0.12 | 85 | 1011.2 |
| 20260510083059 | 55 | 336 | 1.0 | 6.0 | 0.00 | 0.25 | 0.12 | 85 | 1011.2 |
| 20260510082558 | 55 | 0 | 2.0 | 6.0 | 0.00 | 0.25 | 0.12 | 86 | 1011.1 |
| 20260510082059 | 55 | 332 | 3.0 | 6.0 | 0.00 | 0.25 | 0.12 | 87 | 1011.0 |
| 20260510081607 | 55 | 323 | 1.0 | 5.0 | 0.00 | 0.25 | 0.12 | 87 | 1011.0 |
| 20260510081059 | 55 | 0 | 1.0 | 5.0 | 0.00 | 0.25 | 0.12 | 88 | 1010.7 |
| 20260510080600 | 55 | 0 | 1.0 | 5.0 | 0.00 | 0.25 | 0.12 | 88 | 1010.9 |
| 20260510080104 | 55 | 0 | 0.0 | 6.0 | 0.00 | 0.25 | 0.12 | 87 | 1010.8 |
| 20260510075559 | 55 | 284 | 0.0 | 6.0 | 0.00 | 0.31 | 0.12 | 87 | 1010.6 |
| 20260510075059 | 55 | 290 | 0.0 | 4.0 | 0.00 | 0.31 | 0.12 | 87 | 1010.3 |
| 20260510074600 | 55 | 0 | 0.0 | 4.0 | 0.00 | 0.31 | 0.12 | 87 | 1010.2 |
| 20260510074059 | 55 | 296 | 1.0 | 4.0 | 0.00 | 0.31 | 0.12 | 87 | 1010.2 |
| 20260510073558 | 55 | 302 | 1.0 | 4.0 | 0.00 | 0.31 | 0.12 | 87 | 1010.2 |
| 20260510073100 | 55 | 0 | 1.0 | 3.0 | 0.07 | 0.31 | 0.12 | 87 | 1010.3 |
| 20260510072559 | 56 | 315 | 0.0 | 4.0 | 0.08 | 0.31 | 0.12 | 86 | 1010.1 |
| 20260510072058 | 56 | 0 | 0.0 | 4.0 | 0.08 | 0.31 | 0.12 | 86 | 1010.2 |
| 20260510071559 | 56 | 319 | 1.0 | 4.0 | 0.08 | 0.31 | 0.12 | 86 | 1010.4 |
| 20260510071059 | 56 | 317 | 0.0 | 4.0 | 0.09 | 0.31 | 0.12 | 85 | 1010.2 |
| 20260510070559 | 57 | 316 | 2.0 | 4.0 | 0.09 | 0.31 | 0.12 | 85 | 1010.2 |
| 20260510070113 | 57 | 316 | 1.0 | 4.0 | 0.10 | 0.31 | 0.12 | 84 | 1010.2 |
| 20260510065602 | 57 | 0 | 1.0 | 5.0 | 0.10 | 0.36 | 0.12 | 83 | 1010.3 |
| 20260510065100 | 58 | 304 | 1.0 | 9.0 | 0.10 | 0.36 | 0.12 | 82 | 1010.3 |
| 20260510064558 | 58 | 0 | 3.0 | 11.0 | 0.11 | 0.36 | 0.12 | 81 | 1010.3 |
| 20260510064058 | 58 | 269 | 5.0 | 22.0 | 0.11 | 0.36 | 0.12 | 80 | 1010.5 |
| 20260510063559 | 58 | 256 | 8.0 | 22.0 | 0.11 | 0.36 | 0.12 | 80 | 1010.5 |
| 20260510063058 | 58 | 234 | 9.0 | 22.0 | 0.04 | 0.29 | 0.05 | 82 | 1010.8 |
| 20260510062601 | 57 | 227 | 6.0 | 14.0 | 0.03 | 0.28 | 0.04 | 83 | 1010.4 |
| 20260510062058 | 58 | 236 | 3.0 | 12.0 | 0.03 | 0.28 | 0.04 | 83 | 1010.5 |
| 20260510061559 | 58 | 231 | 5.0 | 13.0 | 0.04 | 0.28 | 0.04 | 82 | 1010.1 |
| 20260510061059 | 58 | 334 | 7.0 | 14.0 | 0.03 | 0.27 | 0.03 | 81 | 1010.3 |
| 20260510060556 | 58 | 286 | 4.0 | 14.0 | 0.03 | 0.27 | 0.03 | 81 | 1010.5 |
| 20260510060059 | 58 | 261 | 5.0 | 14.0 | 0.02 | 0.26 | 0.02 | 80 | 1010.6 |
| 20260510055621 | 58 | 267 | 3.0 | 11.0 | 0.02 | 0.27 | 0.02 | 80 | 1010.6 |
| 20260510055103 | 59 | 295 | 3.0 | 11.0 | 0.02 | 0.27 | 0.02 | 78 | 1010.6 |
| 20260510054601 | 59 | 288 | 4.0 | 11.0 | 0.01 | 0.26 | 0.01 | 77 | 1010.6 |
| 20260510054055 | 59 | 328 | 4.0 | 12.0 | 0.01 | 0.26 | 0.01 | 76 | 1010.4 |
| 20260510053559 | 59 | 342 | 6.0 | 12.0 | 0.01 | 0.26 | 0.01 | 76 | 1010.6 |
| 20260510053100 | 60 | 296 | 5.0 | 14.0 | 0.01 | 0.26 | 0.01 | 77 | 1010.9 |
| 20260510052559 | 60 | 290 | 6.0 | 14.0 | 0.01 | 0.26 | 0.01 | 78 | 1011.0 |
| 20260510052059 | 60 | 247 | 4.0 | 12.0 | 0.01 | 0.26 | 0.01 | 79 | 1010.9 |
| 20260510051607 | 60 | 321 | 5.0 | 12.0 | 0.00 | 0.25 | 0.00 | 79 | 1010.8 |
| 20260510051058 | 60 | 326 | 2.0 | 9.0 | 0.00 | 0.25 | 0.00 | 77 | 1010.9 |
| 20260510050603 | 61 | 325 | 4.0 | 9.0 | 0.00 | 0.25 | 0.00 | 76 | 1010.6 |
| 20260510050108 | 61 | 310 | 3.0 | 14.0 | 0.00 | 0.25 | 0.00 | 75 | 1010.6 |
| 20260510045559 | 61 | 300 | 6.0 | 14.0 | 0.00 | 0.26 | 0.00 | 73 | 1010.4 |
| 20260510045057 | 61 | 277 | 2.0 | 7.0 | 0.00 | 0.26 | 0.00 | 73 | 1010.3 |
| 20260510044559 | 61 | 279 | 2.0 | 10.0 | 0.00 | 0.26 | 0.00 | 72 | 1010.2 |
| 20260510044057 | 61 | 259 | 3.0 | 10.0 | 0.00 | 0.26 | 0.00 | 72 | 1010.0 |
| 20260510043558 | 61 | 252 | 3.0 | 9.0 | 0.00 | 0.26 | 0.00 | 72 | 1009.9 |
| 20260510043058 | 61 | 226 | 3.0 | 8.0 | 0.00 | 0.26 | 0.00 | 72 | 1009.9 |
| 20260510042557 | 61 | 248 | 3.0 | 8.0 | 0.00 | 0.26 | 0.00 | 72 | 1009.7 |
| 20260510042057 | 61 | 254 | 4.0 | 10.0 | 0.00 | 0.26 | 0.00 | 72 | 1009.8 |
| 20260510041605 | 61 | 244 | 4.0 | 10.0 | 0.00 | 0.26 | 0.00 | 72 | 1009.7 |
| 20260510041057 | 61 | 237 | 4.0 | 8.0 | 0.00 | 0.26 | 0.00 | 72 | 1009.7 |
| 20260510040557 | 61 | 221 | 4.0 | 8.0 | 0.00 | 0.26 | 0.00 | 72 | 1009.6 |
| 20260510040110 | 61 | 235 | 3.0 | 8.0 | 0.00 | 0.26 | 0.00 | 72 | 1009.5 |
| 20260510035557 | 61 | 242 | 3.0 | 8.0 | 0.00 | 0.27 | 0.26 | 72 | 1009.6 |
| 20260510035100 | 61 | 242 | 2.0 | 8.0 | 0.00 | 0.27 | 0.26 | 72 | 1009.7 |
| 20260510034557 | 61 | 255 | 4.0 | 8.0 | 0.00 | 0.27 | 0.26 | 72 | 1009.5 |
| 20260510034057 | 61 | 264 | 3.0 | 7.0 | 0.00 | 0.27 | 0.26 | 72 | 1009.7 |
| 20260510033557 | 61 | 223 | 3.0 | 7.0 | 0.00 | 0.27 | 0.26 | 72 | 1009.6 |
| 20260510033105 | 61 | 233 | 3.0 | 8.0 | 0.00 | 0.27 | 0.26 | 71 | 1009.5 |
| 20260510032600 | 62 | 222 | 4.0 | 8.0 | 0.00 | 0.27 | 0.26 | 71 | 1009.6 |
| 20260510032057 | 62 | 217 | 3.0 | 8.0 | 0.00 | 0.27 | 0.26 | 70 | 1009.5 |
| 20260510031603 | 62 | 229 | 3.0 | 9.0 | 0.00 | 0.27 | 0.26 | 70 | 1009.4 |
| 20260510031058 | 62 | 248 | 3.0 | 9.0 | 0.00 | 0.27 | 0.26 | 70 | 1009.5 |
| 20260510030600 | 62 | 255 | 3.0 | 9.0 | 0.00 | 0.27 | 0.26 | 70 | 1009.3 |
| 20260510030100 | 62 | 259 | 4.0 | 9.0 | 0.00 | 0.27 | 0.26 | 70 | 1009.3 |
| 20260510025557 | 62 | 270 | 3.0 | 9.0 | 0.00 | 0.27 | 0.26 | 69 | 1009.3 |
| 20260510025135 | 63 | 258 | 2.0 | 9.0 | 0.00 | 0.27 | 0.26 | 69 | 1009.4 |
| 20260510024559 | 63 | 246 | 3.0 | 8.0 | 0.00 | 0.27 | 0.26 | 69 | 1009.4 |
| 20260510024101 | 63 | 270 | 4.0 | 8.0 | 0.00 | 0.27 | 0.26 | 69 | 1009.3 |
| 20260510023600 | 63 | 252 | 4.0 | 9.0 | 0.00 | 0.27 | 0.26 | 69 | 1009.2 |
| 20260510023101 | 63 | 236 | 3.0 | 9.0 | 0.00 | 0.27 | 0.26 | 68 | 1009.2 |
| 20260510022559 | 63 | 244 | 3.0 | 8.0 | 0.00 | 0.27 | 0.26 | 68 | 1009.2 |
| 20260510022100 | 63 | 226 | 3.0 | 9.0 | 0.00 | 0.27 | 0.26 | 67 | 1009.2 |
| 20260510021646 | 63 | 244 | 3.0 | 11.0 | 0.00 | 0.27 | 0.26 | 67 | 1009.2 |
| 20260510021100 | 63 | 360 | 4.0 | 11.0 | 0.00 | 0.27 | 0.26 | 67 | 1009.2 |
| 20260510020600 | 63 | 360 | 3.0 | 10.0 | 0.00 | 0.27 | 0.26 | 67 | 1009.0 |
| 20260510015601 | 64 | 360 | 4.0 | 8.0 | 0.00 | 0.27 | 0.26 | 67 | 1008.7 |
| 20260510015058 | 64 | 360 | 4.0 | 9.0 | 0.00 | 0.27 | 0.26 | 67 | 1008.7 |
| 20260510014600 | 64 | 360 | 4.0 | 9.0 | 0.00 | 0.27 | 0.26 | 67 | 1008.6 |
| 20260510014100 | 64 | 360 | 4.0 | 9.0 | 0.00 | 0.27 | 0.26 | 67 | 1008.4 |
| 20260510013601 | 64 | 360 | 3.0 | 9.0 | 0.00 | 0.27 | 0.26 | 66 | 1008.3 |
| 20260510013125 | 64 | 360 | 3.0 | 9.0 | 0.00 | 0.27 | 0.26 | 66 | 1008.3 |
| 20260510012559 | 64 | 360 | 3.0 | 6.0 | 0.00 | 0.27 | 0.26 | 66 | 1008.3 |
| 20260510012100 | 65 | 360 | 3.0 | 8.0 | 0.00 | 0.27 | 0.26 | 66 | 1008.2 |
| 20260510011600 | 65 | 360 | 3.0 | 8.0 | 0.00 | 0.27 | 0.26 | 65 | 1008.1 |
| 20260510011100 | 65 | 360 | 3.0 | 8.0 | 0.00 | 0.27 | 0.26 | 65 | 1008.2 |
| 20260510010600 | 65 | 244 | 4.0 | 8.0 | 0.00 | 0.27 | 0.26 | 64 | 1008.1 |
| 20260510005558 | 66 | 360 | 3.0 | 10.0 | 0.00 | 0.27 | 0.26 | 63 | 1008.1 |
| 20260510005103 | 66 | 360 | 4.0 | 10.0 | 0.00 | 0.27 | 0.26 | 63 | 1008.0 |
| 20260510004602 | 66 | 360 | 4.0 | 10.0 | 0.00 | 0.27 | 0.26 | 63 | 1007.9 |
| 20260510004100 | 67 | 360 | 4.0 | 10.0 | 0.00 | 0.27 | 0.26 | 63 | 1007.9 |
| 20260510003600 | 67 | 360 | 4.0 | 11.0 | 0.00 | 0.27 | 0.26 | 62 | 1007.8 |
| 20260510003106 | 67 | 360 | 4.0 | 11.0 | 0.00 | 0.27 | 0.26 | 62 | 1007.6 |
| 20260510002600 | 67 | 360 | 4.0 | 11.0 | 0.00 | 0.27 | 0.26 | 62 | 1007.6 |
| 20260510002059 | 68 | 360 | 3.0 | 10.0 | 0.00 | 0.27 | 0.26 | 62 | 1007.7 |
| 20260510001606 | 68 | 360 | 5.0 | 13.0 | 0.00 | 0.27 | 0.26 | 62 | 1007.5 |
| 20260510001102 | 68 | 360 | 5.0 | 13.0 | 0.00 | 0.27 | 0.26 | 61 | 1007.5 |
| 20260510000600 | 68 | 360 | 5.0 | 14.0 | 0.00 | 0.27 | 0.26 | 61 | 1007.5 |
| 20260509235559 | 69 | 360 | 3.0 | 12.0 | 0.00 | 0.27 | 0.26 | 61 | 1007.3 |
| 20260509235100 | 69 | 360 | 6.0 | 14.0 | 0.00 | 0.27 | 0.26 | 61 | 1007.2 |
| 20260509234558 | 69 | 360 | 6.0 | 14.0 | 0.00 | 0.27 | 0.26 | 61 | 1007.2 |
| 20260509234100 | 69 | 360 | 4.0 | 12.0 | 0.00 | 0.27 | 0.26 | 61 | 1007.2 |
| 20260509233559 | 69 | 360 | 5.0 | 14.0 | 0.00 | 0.27 | 0.26 | 60 | 1007.1 |
| 20260509233058 | 70 | 360 | 5.0 | 16.0 | 0.00 | 0.27 | 0.26 | 60 | 1007.1 |
| 20260509232559 | 70 | 360 | 6.0 | 16.0 | 0.00 | 0.27 | 0.26 | 59 | 1007.1 |
| 20260509232059 | 70 | 360 | 5.0 | 17.0 | 0.00 | 0.27 | 0.26 | 59 | 1007.1 |
| 20260509231604 | 70 | 360 | 9.0 | 17.0 | 0.00 | 0.27 | 0.26 | 58 | 1006.9 |
| 20260509231059 | 70 | 270 | 8.0 | 18.0 | 0.00 | 0.27 | 0.26 | 58 | 1007.0 |
| 20260509230558 | 70 | 252 | 8.0 | 18.0 | 0.00 | 0.27 | 0.26 | 58 | 1007.1 |
| 20260509230100 | 70 | 253 | 5.0 | 18.0 | 0.00 | 0.27 | 0.26 | 59 | 1007.1 |
| 20260509225556 | 70 | 264 | 8.0 | 18.0 | 0.00 | 0.27 | 0.26 | 59 | 1007.1 |
| 20260509225056 | 71 | 223 | 8.0 | 18.0 | 0.00 | 0.27 | 0.26 | 59 | 1007.1 |
| 20260509224559 | 71 | 257 | 8.0 | 16.0 | 0.00 | 0.27 | 0.26 | 58 | 1007.0 |
| 20260509224055 | 71 | 205 | 8.0 | 21.0 | 0.00 | 0.27 | 0.26 | 58 | 1007.0 |
| 20260509223559 | 71 | 252 | 11.0 | 20.0 | 0.00 | 0.27 | 0.26 | 58 | 1007.1 |
| 20260509223102 | 71 | 228 | 9.0 | 19.0 | 0.00 | 0.27 | 0.26 | 58 | 1006.9 |
| 20260509222558 | 71 | 237 | 8.0 | 19.0 | 0.00 | 0.27 | 0.26 | 59 | 1006.9 |
| 20260509222108 | 71 | 254 | 9.0 | 19.0 | 0.00 | 0.27 | 0.26 | 59 | 1006.9 |
| 20260509221557 | 71 | 273 | 9.0 | 15.0 | 0.00 | 0.27 | 0.26 | 60 | 1006.9 |
| 20260509221056 | 71 | 219 | 9.0 | 20.0 | 0.00 | 0.27 | 0.26 | 61 | 1006.9 |
| 20260509220557 | 71 | 232 | 10.0 | 20.0 | 0.00 | 0.27 | 0.26 | 60 | 1006.8 |
| 20260509220058 | 71 | 238 | 9.0 | 19.0 | 0.00 | 0.27 | 0.26 | 60 | 1006.8 |
| 20260509215602 | 71 | 198 | 9.0 | 18.0 | 0.00 | 0.27 | 0.26 | 60 | 1006.7 |
| 20260509215056 | 71 | 219 | 9.0 | 18.0 | 0.00 | 0.27 | 0.26 | 61 | 1006.7 |
| 20260509214558 | 71 | 201 | 8.0 | 18.0 | 0.00 | 0.27 | 0.26 | 61 | 1006.9 |
| 20260509214055 | 71 | 197 | 10.0 | 18.0 | 0.00 | 0.27 | 0.26 | 60 | 1006.9 |
| 20260509213555 | 71 | 217 | 9.0 | 17.0 | 0.00 | 0.27 | 0.26 | 58 | 1006.9 |
| 20260509213114 | 72 | 196 | 8.0 | 17.0 | 0.00 | 0.27 | 0.26 | 59 | 1007.0 |
| 20260509212555 | 72 | 210 | 8.0 | 18.0 | 0.00 | 0.27 | 0.26 | 60 | 1006.9 |
| 20260509212058 | 71 | 213 | 8.0 | 19.0 | 0.00 | 0.27 | 0.26 | 61 | 1007.0 |
| 20260509211605 | 71 | 263 | 11.0 | 19.0 | 0.00 | 0.27 | 0.26 | 61 | 1007.1 |
| 20260509211059 | 71 | 206 | 10.0 | 20.0 | 0.00 | 0.27 | 0.26 | 61 | 1007.2 |
| 20260509210556 | 71 | 215 | 10.0 | 20.0 | 0.00 | 0.27 | 0.26 | 61 | 1007.2 |
| 20260509210104 | 71 | 216 | 11.0 | 18.0 | 0.00 | 0.27 | 0.26 | 61 | 1007.2 |
| 20260509205558 | 71 | 236 | 7.0 | 17.0 | 0.00 | 0.27 | 0.26 | 61 | 1007.1 |
| 20260509205058 | 71 | 198 | 7.0 | 17.0 | 0.00 | 0.27 | 0.26 | 61 | 1007.1 |
| 20260509204558 | 71 | 207 | 10.0 | 15.0 | 0.00 | 0.27 | 0.26 | 61 | 1007.1 |
| 20260509204122 | 71 | 298 | 6.0 | 18.0 | 0.00 | 0.27 | 0.26 | 61 | 1007.2 |
| 20260509203601 | 71 | 209 | 9.0 | 18.0 | 0.00 | 0.27 | 0.26 | 62 | 1007.2 |
| 20260509203101 | 70 | 274 | 7.0 | 18.0 | 0.00 | 0.27 | 0.26 | 64 | 1007.2 |
| 20260509202601 | 70 | 205 | 9.0 | 18.0 | 0.00 | 0.27 | 0.26 | 63 | 1007.4 |
| 20260509202100 | 71 | 224 | 7.0 | 18.0 | 0.00 | 0.27 | 0.26 | 62 | 1007.2 |
| 20260509201605 | 71 | 242 | 8.0 | 18.0 | 0.00 | 0.27 | 0.26 | 62 | 1007.3 |
| 20260509201100 | 71 | 256 | 8.0 | 19.0 | 0.00 | 0.27 | 0.26 | 63 | 1007.5 |
| 20260509200559 | 70 | 171 | 7.0 | 19.0 | 0.00 | 0.27 | 0.26 | 62 | 1007.4 |
| 20260509200104 | 70 | 247 | 9.0 | 16.0 | 0.00 | 0.27 | 0.26 | 61 | 1007.6 |
| 20260509195600 | 70 | 241 | 8.0 | 20.0 | 0.00 | 0.27 | 0.26 | 59 | 1007.5 |
| 20260509195059 | 70 | 207 | 9.0 | 20.0 | 0.00 | 0.27 | 0.26 | 61 | 1007.7 |
| 20260509194602 | 70 | 271 | 11.0 | 20.0 | 0.00 | 0.27 | 0.26 | 59 | 1007.7 |
| 20260509194058 | 70 | 267 | 8.0 | 19.0 | 0.00 | 0.27 | 0.26 | 60 | 1007.8 |
| 20260509193601 | 70 | 245 | 9.0 | 18.0 | 0.00 | 0.27 | 0.26 | 61 | 1007.9 |
| 20260509193059 | 70 | 201 | 6.0 | 18.0 | 0.00 | 0.27 | 0.26 | 59 | 1007.9 |
| 20260509192603 | 70 | 274 | 7.0 | 18.0 | 0.00 | 0.27 | 0.26 | 61 | 1007.9 |
| 20260509192058 | 69 | 238 | 7.0 | 19.0 | 0.00 | 0.27 | 0.26 | 64 | 1007.9 |
| 20260509191608 | 69 | 230 | 10.0 | 19.0 | 0.00 | 0.27 | 0.26 | 62 | 1007.8 |
| 20260509191101 | 69 | 190 | 8.0 | 14.0 | 0.00 | 0.27 | 0.26 | 61 | 1007.8 |
| 20260509190604 | 69 | 215 | 7.0 | 18.0 | 0.00 | 0.27 | 0.26 | 63 | 1008.0 |
| 20260509190100 | 69 | 215 | 10.0 | 18.0 | 0.00 | 0.27 | 0.26 | 62 | 1007.9 |
| 20260509185600 | 69 | 261 | 8.0 | 18.0 | 0.00 | 0.27 | 0.26 | 62 | 1008.0 |
| 20260509185100 | 69 | 202 | 7.0 | 18.0 | 0.00 | 0.27 | 0.26 | 63 | 1008.0 |
| 20260509184611 | 69 | 219 | 7.0 | 17.0 | 0.00 | 0.27 | 0.26 | 63 | 1008.1 |
| 20260509184058 | 68 | 281 | 6.0 | 17.0 | 0.00 | 0.27 | 0.26 | 64 | 1008.2 |
| 20260509183559 | 68 | 267 | 7.0 | 15.0 | 0.00 | 0.27 | 0.26 | 64 | 1008.2 |
| 20260509183102 | 68 | 203 | 6.0 | 15.0 | 0.00 | 0.27 | 0.26 | 63 | 1008.3 |
| 20260509182600 | 68 | 194 | 6.0 | 15.0 | 0.00 | 0.27 | 0.26 | 63 | 1008.2 |
| 20260509182100 | 68 | 262 | 7.0 | 15.0 | 0.00 | 0.27 | 0.26 | 65 | 1008.2 |
| 20260509181607 | 68 | 215 | 5.0 | 13.0 | 0.00 | 0.27 | 0.26 | 65 | 1008.3 |
| 20260509181101 | 67 | 218 | 5.0 | 14.0 | 0.00 | 0.27 | 0.26 | 68 | 1008.3 |
| 20260509180601 | 67 | 219 | 4.0 | 16.0 | 0.00 | 0.27 | 0.26 | 68 | 1008.3 |
| 20260509180117 | 67 | 259 | 5.0 | 16.0 | 0.00 | 0.27 | 0.26 | 65 | 1008.3 |
| 20260509175600 | 67 | 210 | 6.0 | 16.0 | 0.00 | 0.27 | 0.26 | 65 | 1008.3 |
| 20260509175100 | 67 | 322 | 7.0 | 16.0 | 0.00 | 0.27 | 0.26 | 67 | 1008.3 |
| 20260509174612 | 67 | 263 | 7.0 | 16.0 | 0.00 | 0.27 | 0.26 | 68 | 1008.4 |
| 20260509174100 | 66 | 253 | 10.0 | 16.0 | 0.00 | 0.27 | 0.26 | 68 | 1008.5 |
| 20260509173634 | 67 | 252 | 9.0 | 16.0 | 0.00 | 0.27 | 0.26 | 65 | 1008.5 |
| 20260509173107 | 67 | 262 | 7.0 | 16.0 | 0.00 | 0.27 | 0.26 | 69 | 1008.5 |
| 20260509172600 | 66 | 244 | 7.0 | 16.0 | 0.00 | 0.27 | 0.26 | 67 | 1008.5 |
| 20260509172100 | 66 | 298 | 6.0 | 16.0 | 0.00 | 0.27 | 0.26 | 70 | 1008.6 |
| 20260509171608 | 66 | 238 | 8.0 | 16.0 | 0.00 | 0.27 | 0.26 | 69 | 1008.6 |
| 20260509171100 | 65 | 221 | 10.0 | 16.0 | 0.00 | 0.27 | 0.26 | 68 | 1008.5 |
| 20260509170600 | 65 | 205 | 7.0 | 16.0 | 0.00 | 0.27 | 0.26 | 68 | 1008.7 |
| 20260509170106 | 65 | 250 | 7.0 | 16.0 | 0.00 | 0.27 | 0.26 | 67 | 1008.6 |
| 20260509165600 | 65 | 244 | 7.0 | 16.0 | 0.00 | 0.27 | 0.26 | 70 | 1008.7 |
| 20260509165100 | 64 | 249 | 7.0 | 14.0 | 0.00 | 0.27 | 0.26 | 72 | 1008.6 |
| 20260509164600 | 64 | 198 | 8.0 | 14.0 | 0.00 | 0.27 | 0.26 | 72 | 1008.6 |
| 20260509164103 | 64 | 237 | 5.0 | 15.0 | 0.00 | 0.27 | 0.26 | 72 | 1008.6 |
| 20260509163559 | 64 | 205 | 5.0 | 15.0 | 0.00 | 0.27 | 0.26 | 73 | 1008.8 |
| 20260509163104 | 64 | 246 | 9.0 | 15.0 | 0.00 | 0.27 | 0.26 | 70 | 1008.8 |
| 20260509162603 | 65 | 271 | 4.0 | 15.0 | 0.00 | 0.27 | 0.26 | 73 | 1008.6 |
| 20260509162059 | 64 | 250 | 6.0 | 15.0 | 0.00 | 0.27 | 0.26 | 73 | 1008.7 |
| 20260509161605 | 64 | 203 | 5.0 | 12.0 | 0.00 | 0.27 | 0.26 | 73 | 1008.7 |
| 20260509161058 | 63 | 252 | 5.0 | 13.0 | 0.00 | 0.27 | 0.26 | 75 | 1008.6 |
| 20260509160600 | 63 | 217 | 4.0 | 13.0 | 0.00 | 0.27 | 0.26 | 74 | 1008.6 |
| 20260509155601 | 62 | 256 | 6.0 | 13.0 | 0.00 | 0.27 | 0.26 | 74 | 1008.6 |
| 20260509155059 | 63 | 224 | 4.0 | 15.0 | 0.00 | 0.27 | 0.26 | 74 | 1008.5 |
| 20260509154600 | 63 | 260 | 5.0 | 15.0 | 0.00 | 0.27 | 0.26 | 76 | 1008.5 |
| 20260509154100 | 62 | 232 | 7.0 | 15.0 | 0.00 | 0.27 | 0.26 | 75 | 1008.5 |
| 20260509153559 | 62 | 199 | 6.0 | 15.0 | 0.00 | 0.27 | 0.26 | 78 | 1008.5 |
| 20260509153105 | 62 | 236 | 6.0 | 15.0 | 0.00 | 0.27 | 0.26 | 77 | 1008.4 |
| 20260509152559 | 62 | 261 | 5.0 | 13.0 | 0.00 | 0.27 | 0.26 | 79 | 1008.3 |
| 20260509152100 | 61 | 187 | 6.0 | 13.0 | 0.00 | 0.27 | 0.26 | 79 | 1008.5 |